date,batt_volt,AirTemp_C,Solar_kW,RH,Manual_BP,StationID,WS_ms,PTemp,WS_15min_max,Prog_Sig,Solar_Raw,Bar_mbar,Solar_MJ,Max_WS_2min,Pressure_Raw,Rain_mm,WD_15min_ave,Max_AirTemp_1min,WindDir,WS_15min_med,WS_15min_ave,Elevation_Correction
2018-02-01T00:11:30Z,13.53628,-7.11998,0.0,60.05359,0,1156,5.8604,-5.808758,,43690,0.0,1015.958,0.0,8.17,1014.157,0,,-7.086001,286.1669,,,1.80078
2018-02-01T00:26:26Z,13.53083,-7.221657,0.0,58.0839,0,1156,5.782,-5.853943,,43690,0.0,1015.958,0.0,8.9,1014.157,0,,-6.95,287.6158,,,1.80078
2018-02-01T00:41:28Z,13.5253,-6.74593,0.0,58.72961,0,1156,9.133599,-5.788426,,43690,0.0,1015.958,0.0,8.33,1014.157,0,,-6.712,285.1576,,,1.80078
2018-02-01T00:56:29Z,13.52495,-6.746777,0.0,57.53928,0,1156,7.5068,-5.700314,,43690,0.0,1015.958,0.0,9.15,1014.157,0,,-6.644,291.9993,,,1.80078
2018-02-01T01:11:31Z,13.52436,-6.647408,0.0,58.79159,0,1156,7.9772,-5.634796,,43690,0.0,1015.742,0.0,8.57,1013.941,0,,-6.511,275.3382,,,1.80078
2018-02-01T01:26:32Z,13.52346,-6.34301,0.0,58.07614,0,1156,8.7024,-5.569279,,43690,0.0,1015.742,0.0,9.8,1013.941,0,,-6.275,280.1746,,,1.80078
2018-02-01T01:41:28Z,13.49964,-6.243332,0.0,58.71759,0,1156,8.682799,-5.395317,,43690,0.0,1015.742,0.0,10.04,1013.941,0,,-6.141,289.6805,,,1.80078
2018-02-01T01:56:29Z,13.48769,-6.178997,0.0,60.68086,0,1156,8.859199,-5.198761,,43690,0.0,1015.742,0.0,10.15,1013.941,0,,-6.111,286.7807,,,1.80078
2018-02-01T02:11:30Z,13.49862,-6.213894,0.0,60.06796,0,1156,7.859599,-5.069984,,43690,0.0,1016.158,0.0,10.04,1014.357,0,,-6.078,293.041,,,1.80078
2018-02-01T02:26:32Z,13.49309,-6.349735,0.0,55.41598,0,1156,3.6848,-4.96154,,43690,0.0,1016.158,0.0,10.29,1014.357,0,,-6.282,298.851,,,1.80078
2018-02-01T02:41:33Z,13.4765,-7.164677,0.0,54.60104,0,1156,2.4696,-4.896023,,43690,0.0,1016.158,0.0,4.253,1014.357,0,,-6.995,316.0646,,,1.80078
2018-02-01T02:56:29Z,13.48756,-7.538189,0.0,53.17489,0,1156,3.92,-4.981872,,43690,0.0,1016.158,0.0,4.9,1014.357,0,,-7.334,321.4649,,,1.80078
2018-02-01T03:11:31Z,13.49862,-7.198631,0.0,54.05774,0,1156,2.8812,-5.090317,,43690,0.0,1016.477,0.0,5.037,1014.676,0,,-7.3,338.2445,,,1.80078
2018-02-01T03:26:32Z,13.50415,-7.198631,0.0,55.68762,0,1156,4.312,-5.133244,,43690,0.0,1016.477,0.0,4.488,1014.676,0,,-7.199,308.2292,,,1.80078
2018-02-01T03:41:34Z,13.49862,-7.164677,0.0,54.73686,0,1156,4.1748,-5.04739,,43690,0.0,1016.477,0.0,4.626,1014.676,0,,-7.063,315.7512,,,1.80078
2018-02-01T03:56:29Z,13.48756,-7.130718,0.0,54.26148,0,1156,2.254,-4.853096,,43690,0.0,1016.477,0.0,4.312,1014.676,0,,-7.063,353.0955,,,1.80078
2018-02-01T04:11:32Z,13.48203,-7.334454,0.0,53.61632,0,1156,2.8616,-4.722057,,43690,0.0,1016.558,0.0,3.391,1014.757,0,,-7.131001,333.5916,,,1.80078
2018-02-01T04:26:33Z,13.48203,-7.198631,0.0,53.68423,0,1156,2.254,-4.593281,,43690,0.0,1016.558,0.0,2.215,1014.757,0,,-7.131001,346.4656,,,1.80078
2018-02-01T04:41:34Z,13.4765,-7.266544,0.0,52.90324,0,1156,1.372,-4.484836,,43690,0.0,1016.558,0.0,2.332,1014.757,0,,-7.199,348.4907,,,1.80078
2018-02-01T04:56:35Z,13.47097,-7.062809,0.0,52.46182,0,1156,1.4112,-4.333469,,43690,0.0,1016.558,0.0,1.784,1014.757,0,,-6.995,8.871988,,,1.80078
2018-02-01T05:11:30Z,13.45438,-6.859074,0.0,52.32599,0,1156,1.3524,-4.202431,,43690,0.0,1016.721,0.0,1.823,1014.92,0,,-6.825,5.617319,,,1.80078
2018-02-01T05:26:33Z,13.45991,-7.096764,0.0,59.69442,0,1156,0.9604,-4.096245,,43690,0.0,1016.721,0.0,0.9210001,1014.92,0,,-6.961001,97.01326,,,1.80078
2018-02-01T05:41:34Z,13.46544,-7.436322,0.0,65.36504,0,1156,1.1368,-4.073654,,43690,0.0,1016.721,0.0,1.47,1014.92,0,,-7.233,95.75962,,,1.80078
2018-02-01T05:56:35Z,13.47097,-6.655338,0.0,65.33109,0,1156,2.2344,-4.116581,,43690,0.0,1016.721,0.0,2.803,1014.92,0,,-6.723001,86.74298,,,1.80078
2018-02-01T06:11:36Z,13.45438,-6.179954,0.0,64.61802,0,1156,0.6076,-4.05106,,43690,0.0,1017.455,0.0,2.078,1015.654,0,,-6.112,107.3318,,,1.80078
2018-02-01T06:26:31Z,13.43779,-3.837002,0.0,63.6333,0,1156,4.606,-3.793507,,43690,0.0,1017.455,0.0,5.664,1015.654,0,,-3.973,242.6778,,,1.80078
2018-02-01T06:41:34Z,13.4193,-3.469418,-0.0004829983,62.5026,0,1156,5.8604,-3.14962,,43690,0.0,1017.455,-2.414992e-06,6.703,1015.654,0,,-3.367,235.5998,,,1.80078
2018-02-01T06:56:34Z,13.40575,-3.543366,0.0,63.44269,0,1156,5.5468,-2.505733,,43690,0.0,1017.455,0.0,6.644,1015.654,0,,-3.441,248.1173,,,1.80078
2018-02-01T07:11:35Z,13.39454,-3.340107,0.0,66.19148,0,1156,6.1936,-2.035809,,43690,0.0,1018.097,0.0,6.409,1016.296,0,,-3.408,232.6902,,,1.80078
2018-02-01T07:26:36Z,13.38348,-3.815327,0.0,70.06113,0,1156,4.2728,-1.67207,,43690,0.0,1018.097,0.0,6.958,1016.296,0,,-3.713,238.1369,,,1.80078
2018-02-01T07:41:37Z,13.38348,-3.781384,0.0,74.81334,0,1156,5.2528,-1.522961,,43690,0.0,1018.097,0.0,6.605,1016.296,0,,-3.646,217.4587,,,1.80078
2018-02-01T07:56:38Z,13.38348,-4.086884,0.0,80.17654,0,1156,0.686,-1.459702,,43690,0.0,1018.097,0.0,3.352,1016.296,0,,-4.019,101.222,,,1.80078
2018-02-01T08:11:34Z,13.37795,-4.120827,0.0,81.70404,0,1156,0.7448,-1.459702,,43690,0.0,1017.28,0.0,1.744,1015.479,0,,-4.121,312.3423,,,1.80078
2018-02-01T08:26:34Z,13.38348,-4.120827,0.0,83.19759,0,1156,0.4508,-1.416775,,43690,0.0,1017.28,0.0,2.509,1015.479,0,,-4.053,276.0469,,,1.80078
2018-02-01T08:41:35Z,13.37795,-3.815327,0.0,83.36732,0,1156,0.9015999,-1.351257,,43690,0.0,1017.28,0.0,6.076,1015.479,0,,-3.713,195.2621,,,1.80078
2018-02-01T08:56:35Z,13.36137,-3.917656,0.0,83.53589,0,1156,1.2936,-1.224739,,43690,0.0,1017.28,0.0,3.156,1015.479,0,,-3.849,225.3846,,,1.80078
2018-02-01T09:11:36Z,13.36079,-3.477951,0.0,83.22682,0,1156,3.1948,-1.118553,,43690,0.0,1017.267,0.0,1.666,1015.466,0,,-3.443,273.0912,,,1.80078
2018-02-01T09:26:36Z,13.36024,-3.377262,0.0,82.6133,0,1156,2.2344,-1.032703,,43690,0.0,1017.267,0.0,6.919,1015.466,0,,-3.41,180.6896,,,1.80078
2018-02-01T09:41:37Z,13.35927,-2.768364,0.0,81.01359,0,1156,4.6256,-0.9039269,,43690,0.0,1017.267,0.0,7.566001,1015.466,0,,-2.633,214.7047,,,1.80078
2018-02-01T09:56:37Z,13.34806,-2.260231,0.0,79.89156,0,1156,6.076,-0.6057053,,43690,0.0,1017.267,0.0,10.8,1015.466,0,,-2.192,201.7594,,,1.80078
2018-02-01T10:11:38Z,13.33676,-1.989735,0.0,79.21068,0,1156,6.6248,-0.2668152,,43690,0.0,1016.378,0.0,9.17,1014.577,0,,-1.887,211.1514,,,1.80078
2018-02-01T10:26:40Z,13.32375,-1.587742,0.0,78.69084,0,1156,8.0164,0.05399704,,43690,0.0,1016.378,0.0,10.82,1014.577,0,,-1.486,232.6612,,,1.80078
2018-02-01T10:41:40Z,13.3292,-1.282639,0.0,78.07945,0,1156,4.6256,0.2867012,,43690,0.0,1016.378,0.0,10.51,1014.577,0,,-1.181,257.4022,,,1.80078
2018-02-01T10:56:36Z,13.31262,-1.079044,0.0,78.28304,0,1156,7.7028,0.5849228,,43690,0.0,1016.378,0.0,10.76,1014.577,0,,-0.9770001,215.7707,,,1.80078
2018-02-01T11:11:39Z,13.30157,-0.9433098,0.0,78.4527,0,1156,7.761599,0.9034767,,43690,0.0,1015.476,0.0,11.03,1013.675,0,,-0.8750001,225.4317,,,1.80078
2018-02-01T11:26:39Z,13.29581,-0.807579,0.0,78.5545,0,1156,9.1924,1.158772,,43690,0.0,1015.476,0.0,9.62,1013.675,0,,-0.7740001,219.6014,,,1.80078
2018-02-01T11:41:39Z,13.29886,-0.5082588,0.0009653287,78.23707,0,1156,8.859199,1.350807,,43690,0.06757301,1015.476,4.826643e-06,11.58,1013.675,0,,-0.474,210.9439,,,1.80078
2018-02-01T11:56:38Z,13.29778,-0.2432518,0.003861315,77.987,0,1156,10.8584,1.522511,,43690,0.270292,1015.476,1.930657e-05,10.27,1013.675,0,,-0.107,233.7422,,,1.80078
2018-02-01T12:11:41Z,13.29158,-0.006607056,0.006274548,78.05327,0,1156,8.486799,1.712288,,43690,0.4392184,1014.664,3.137274e-05,9.51,1012.863,0,,-0.04,228.1981,,,1.80078
2018-02-01T12:26:40Z,13.28048,-0.04069519,0.01496259,77.61196,0,1156,7.3304,1.926918,,43690,1.047381,1014.664,7.481293e-05,10.35,1012.863,0,,0.09500001,228.6306,,,1.80078
2018-02-01T12:41:41Z,13.27496,0.2306786,0.0241332,77.95118,0,1156,7.9576,2.161877,,43690,1.689324,1014.664,0.000120666,12.49,1012.863,0,,0.231,214.8064,,,1.80078
2018-02-01T12:56:42Z,13.28601,0.3663635,0.04392125,78.18863,0,1156,8.0164,2.310989,,43690,3.074487,1014.664,0.0002196062,10.86,1012.863,0,,0.332,204.5947,,,1.80078
2018-02-01T13:11:44Z,13.26943,0.6038094,0.05067678,79.34195,0,1156,9.290401,2.503025,,43690,3.547374,1014.65,0.0002533839,12.31,1012.85,0,,0.536,208.4963,,,1.80078
2018-02-01T13:26:40Z,13.25286,0.5359688,0.06707929,80.63096,0,1156,8.526,2.844173,,43690,4.69555,1014.65,0.0003353964,10.58,1012.85,0,,0.604,216.7572,,,1.80078
2018-02-01T13:41:42Z,13.24734,0.8751831,0.08637985,80.73273,0,1156,8.251599,3.079136,,43690,6.046589,1014.65,0.0004318992,10.02,1012.85,0,,0.7730001,221.4777,,,1.80078
2018-02-01T14:02:32Z,13.24181,1.044788,0.06899798,81.13978,0,1156,10.7996,3.42028,,43690,4.829859,1015.464,0.0003449899,10.0,1013.664,0,,1.147,226.9929,,,1.80078
2018-02-01T14:17:35Z,13.23023,1.11153,0.06899767,81.34113,0,1156,8.0948,3.69817,,43690,4.829837,1015.464,0.0003449884,7.918,1013.664,0,,1.281,243.8453,,,1.80078
2018-02-01T14:32:36Z,13.21767,1.207535,0.08299022,81.90634,0,1156,8.7024,3.912796,,43690,5.809315,1015.464,0.0004149511,8.86,1013.664,0,,1.377,232.5658,,,1.80078
2018-02-01T14:47:38Z,13.21565,1.372479,0.09312238,82.47366,0,1156,6.5464,4.107094,,43690,6.518567,1015.464,0.0004656119,9.09,1013.664,0,,1.508,232.3472,,,1.80078
2018-02-01T15:02:33Z,13.20426,1.505776,0.08636769,84.26622,0,1156,9.113999,4.29913,,43690,6.045738,1014.806,0.0004318384,8.349999,1013.005,0,,1.506,228.3133,,,1.80078
2018-02-01T15:17:36Z,13.20419,1.437878,0.08588098,85.52073,0,1156,7.35,4.364647,,43690,6.011669,1014.806,0.0004294049,9.51,1013.005,0,,1.54,239.1952,,,1.80078
2018-02-01T15:32:37Z,13.20419,1.539516,0.0675399,86.13091,0,1156,8.251599,4.384979,,43690,4.727794,1014.806,0.0003376995,8.04,1013.005,0,,1.675,225.6158,,,1.80078
2018-02-01T15:47:38Z,13.21523,1.505608,0.06126891,87.35167,0,1156,7.7028,4.32172,,43690,4.288824,1014.806,0.0003063445,8.21,1013.005,0,,1.607,227.9753,,,1.80078
2018-02-01T16:02:35Z,13.20971,1.471695,0.06899339,88.43678,0,1156,6.1152,4.342056,,43690,4.829537,1014.883,0.0003449669,8.78,1013.083,0,,1.573,233.6572,,,1.80078
2018-02-01T16:17:36Z,13.21523,1.505608,0.0709184,89.65753,0,1156,7.7028,4.256203,,43690,4.964288,1014.883,0.000354592,7.213,1013.083,0,,1.54,239.3632,,,1.80078
2018-02-01T16:32:37Z,13.20971,1.675156,0.0868451,89.38626,0,1156,6.1348,4.29913,,43690,6.079156,1014.883,0.0004342254,8.599999,1013.083,0,,1.777,220.1506,,,1.80078
2018-02-01T16:47:39Z,13.20971,1.742973,0.08202191,89.28452,0,1156,5.8016,4.342056,,43690,5.741534,1014.883,0.0004101096,6.703,1013.083,0,,1.777,225.5918,,,1.80078
2018-02-01T17:02:36Z,13.21523,1.878613,0.1042096,89.2167,0,1156,5.684,4.407574,,43690,7.294672,1014.558,0.000521048,6.605,1012.757,0,,1.913,243.408,,,1.80078
2018-02-01T17:17:37Z,13.20971,1.810795,0.05451689,89.35235,0,1156,4.5668,4.53635,,43690,3.816182,1014.558,0.0002725844,5.292,1012.757,0,,1.913,255.2052,,,1.80078
2018-02-01T17:32:39Z,13.21523,0.8952294,0.05741276,90.20009,0,1156,4.1552,4.493424,,43690,4.018894,1014.558,0.0002870638,4.194,1012.757,0,,1.031,283.2777,,,1.80078
2018-02-01T17:47:40Z,13.22628,0.9969597,0.1075845,91.01392,0,1156,2.0972,4.32172,,43690,7.530917,1014.558,0.0005379226,2.352,1012.757,0,,1.167,292.7396,,,1.80078
2018-02-01T18:02:37Z,13.21523,1.09869,0.08876794,91.35302,0,1156,1.2348,4.384979,,43690,6.213756,1013.988,0.0004438397,1.98,1012.187,0,,1.099,289.5616,,,1.80078
2018-02-01T18:17:39Z,13.20971,1.166508,0.06899242,91.69212,0,1156,0.2352,4.470833,,43690,4.829469,1013.988,0.000344962,1.274,1012.187,0,,1.234,306.824,,,1.80078
2018-02-01T18:32:40Z,13.19314,1.573425,0.07382012,91.82776,0,1156,0.0,4.599609,,43690,5.167408,1013.988,0.0003691006,0.568,1012.187,0,,1.54,282.7481,,,1.80078
2018-02-01T18:47:41Z,13.1821,1.166508,0.03039495,91.79386,0,1156,0.4704,4.816498,,43690,2.127646,1013.988,0.0001519747,0.823,1012.187,0,,1.268,242.782,,,1.80078
2018-02-01T19:02:38Z,13.1821,1.200417,0.03232301,91.89558,0,1156,0.8035999,4.859424,,43690,2.26261,1014.151,0.000161615,0.0,1012.35,0,,1.302,78.70431,,,1.80078
2018-02-01T19:17:39Z,13.19314,0.9291382,0.04004505,92.13295,0,1156,2.3324,4.75098,,43690,2.803154,1014.151,0.0002002252,2.842,1012.35,0,,1.099,95.48526,,,1.80078
2018-02-01T19:32:41Z,13.19314,0.8952294,0.04776406,92.57378,0,1156,3.332,4.599609,,43690,3.343484,1014.151,0.0002388203,3.391,1012.35,0,,0.9630001,98.90405,,,1.80078
2018-02-01T19:47:42Z,13.19314,1.09869,0.0651321,92.87897,0,1156,1.9012,4.51376,,43690,4.559248,1014.151,0.0003256605,2.803,1012.35,0,,1.133,99.62633,,,1.80078
2018-02-01T20:02:43Z,13.18762,2.251621,0.03039453,92.6755,0,1156,4.4492,4.579277,,43690,2.127617,1013.256,0.0001519727,5.841,1011.455,0,,2.353,229.6847,,,1.80078
2018-02-01T20:17:39Z,13.18762,2.794178,0.01254317,89.08107,0,1156,6.664,4.685463,,43690,0.8780222,1013.256,6.271588e-05,8.309999,1011.455,0,,2.862,237.1001,,,1.80078
2018-02-01T20:32:41Z,13.1821,2.862,0.008683889,86.13091,0,1156,2.9008,4.922684,,43690,0.6078722,1013.256,4.341944e-05,5.174,1011.455,0,,2.998,222.3896,,,1.80078
2018-02-01T20:47:42Z,13.17105,2.895908,0.006271738,85.724,0,1156,2.2932,5.159904,,43690,0.4390216,1013.256,3.135869e-05,6.997,1011.455,0,,2.964,234.1146,,,1.80078
2018-02-01T21:02:43Z,13.17105,3.167187,0.005306623,85.0119,0,1156,5.8016,5.311276,,43690,0.3714636,1012.93,2.653312e-05,6.605,1011.129,0,,3.167,230.4551,,,1.80078
2018-02-01T21:17:39Z,13.1821,3.370644,0.000964796,84.50324,0,1156,4.1748,5.41972,,43690,0.06753572,1012.93,4.82398e-06,5.214,1011.129,0,,3.303,232.5738,,,1.80078
2018-02-01T21:32:41Z,13.19314,3.133278,0.0,84.63889,0,1156,0.3332,5.462643,,43690,0.0,1012.93,0.0,4.528,1011.129,0,,3.235,253.8329,,,1.80078
2018-02-01T21:47:42Z,13.19867,2.72636,0.0,85.35099,0,1156,1.4896,5.485237,,43690,0.0,1012.93,0.0,1.509,1011.129,0,,3.167,82.26755,,,1.80078
2018-02-01T22:02:44Z,13.19867,3.268917,0.0,86.63957,0,1156,3.136,5.440052,,43690,0.0,1013.337,0.0,3.979,1011.536,0,,3.133,243.8895,,,1.80078
2018-02-01T22:17:45Z,13.19314,3.201096,0.0,86.80911,0,1156,3.7828,5.41972,,43690,0.0,1013.337,0.0,2.587,1011.536,0,,3.133,241.7708,,,1.80078
2018-02-01T22:32:44Z,13.19314,3.201096,0.0,86.67347,0,1156,1.0388,5.41972,,43690,0.0,1013.337,0.0,2.254,1011.536,0,,3.133,133.0919,,,1.80078
2018-02-01T22:47:45Z,13.18762,2.455082,0.0,87.21602,0,1156,0.4312,5.440052,,43690,0.0,1013.337,0.0,2.666,1011.536,0,,2.591,327.2404,,,1.80078
2018-02-01T23:02:42Z,13.18762,2.72636,0.0,88.06378,0,1156,0.4116,5.41972,,43690,0.0,1013.337,0.0,2.176,1011.536,0,,2.726,268.7599,,,1.80078
2018-02-01T23:17:44Z,13.1821,3.133278,0.0,88.06378,0,1156,0.7644,5.462643,,43690,0.0,1013.337,0.0,2.94,1011.536,0,,3.133,165.137,,,1.80078
2018-02-01T23:32:45Z,13.17658,3.031548,0.0,87.89422,0,1156,0.7448,5.50557,,43690,0.0,1013.337,0.0,3.332,1011.536,0,,3.269,170.4337,,,1.80078
2018-02-01T23:47:46Z,13.17105,2.963726,0.0,87.7925,0,1156,1.47,5.571087,,43690,0.0,1013.337,0.0,2.646,1011.536,0,,3.167,104.1045,,,1.80078
2018-02-02T00:02:47Z,13.17658,3.947113,0.0,85.45272,0,1156,3.7044,5.636604,,43690,0.0,1012.849,0.0,6.468,1011.048,0.0,,3.947,217.1892,,,1.80078
2018-02-02T00:17:43Z,13.17082,4.354031,0.0,80.36625,0,1156,5.8212,5.830898,,43690,0.0,1012.849,0.0,8.21,1011.048,0.0,,4.524,230.8644,,,1.80078
2018-02-02T00:32:44Z,13.15762,4.720352,0.0,79.20147,0,1156,6.958,6.090717,,43690,0.0,1012.849,0.0,7.37,1011.048,0.0,,4.654,219.9733,,,1.80078
2018-02-02T00:47:45Z,13.15021,4.305332,0.0,79.35638,0,1156,4.9,6.373119,,43690,0.0,1012.849,0.0,8.21,1011.048,0.0,,4.678,226.7681,,,1.80078
2018-02-02T01:02:46Z,13.14451,3.966122,0.0,81.01698,0,1156,3.9592,6.481564,,43690,0.0,1011.943,0.0,4.136,1010.143,0.0,,4.17,271.5089,,,1.80078
2018-02-02T01:17:48Z,13.14451,4.339004,0.0,81.62715,0,1156,5.7232,6.504162,,43690,0.0,1011.943,0.0,8.059999,1010.143,0.0,,4.373,260.1008,,,1.80078
2018-02-02T01:32:49Z,13.14451,3.694935,0.0,82.57631,0,1156,2.6068,6.547085,,43690,0.0,1011.943,0.0,4.469,1010.143,0.0,,3.797,268.0431,,,1.80078
2018-02-02T01:47:45Z,13.14451,4.033916,0.0,83.25427,0,1156,3.1164,6.481564,,43690,0.0,1011.943,0.0,5.253,1010.143,0.0,,4.068,250.9069,,,1.80078
2018-02-02T02:02:47Z,13.14451,3.898323,0.0,83.69495,0,1156,5.978,6.43864,,43690,0.0,1011.699,0.0,5.429,1009.898,0.0,,3.966,251.9658,,,1.80078
2018-02-02T02:17:48Z,13.15555,3.627136,0.0,84.98309,0,1156,4.5472,6.395718,,43690,0.0,1011.699,0.0,5.586,1009.898,0.0,,3.627,253.1933,,,1.80078
2018-02-02T02:32:50Z,13.14451,3.728832,0.0,85.69495,0,1156,4.7824,6.330196,,43690,0.0,1011.699,0.0,7.526001,1009.898,0.0,,3.729,270.0167,,,1.80078
2018-02-02T02:47:46Z,13.15003,3.118664,0.0,86.47462,0,1156,5.1548,6.287274,,43690,0.0,1011.699,0.0,4.567,1009.898,0.0,,3.153,267.5618,,,1.80078
2018-02-02T03:02:48Z,13.15003,3.288155,0.0,86.91529,0,1156,4.1356,6.242084,,43690,0.0,1012.269,0.0,5.272,1010.468,0.0,,3.288,270.137,,,1.80078
2018-02-02T03:17:49Z,13.15003,3.560261,0.0,86.27305,0,1156,5.0568,6.199162,,43690,0.0,1012.269,0.0,5.88,1010.468,0.0,,3.56,274.5232,,,1.80078
2018-02-02T03:32:51Z,13.14451,3.323086,0.0,86.95126,0,1156,4.8608,6.221752,,43690,0.0,1012.269,0.0,5.018,1010.468,0.0,,3.289,268.8197,,,1.80078
2018-02-02T03:47:47Z,13.14455,3.79665,0.0,86.13566,0,1156,5.2136,6.264675,,43690,0.0,1012.269,0.0,6.586,1010.468,0.0,,3.898,250.185,,,1.80078
2018-02-02T04:02:49Z,13.14451,3.728832,0.0,85.76275,0,1156,4.7432,6.307606,,43690,0.0,1012.187,0.0,5.488,1010.387,0.0,,3.797,250.1608,,,1.80078
2018-02-02T04:17:50Z,13.13899,3.559342,0.0,86.37292,0,1156,4.5276,6.395718,,43690,0.0,1012.187,0.0,4.586,1010.387,0.0,,3.627,252.3028,,,1.80078
2018-02-02T04:32:51Z,13.13347,3.694935,0.0,86.91529,0,1156,5.0764,6.41605,,43690,0.0,1012.187,0.0,5.488,1010.387,0.0,,3.729,252.4713,,,1.80078
2018-02-02T04:47:47Z,13.13347,3.76273,0.0,87.25427,0,1156,6.1152,6.41605,,43690,0.0,1012.187,0.0,6.429,1010.387,0.0,,3.797,236.6587,,,1.80078
2018-02-02T05:02:50Z,13.13899,3.830528,0.0,88.00004,0,1156,5.7036,6.41605,,43690,0.0,1011.537,0.0,6.899,1009.736,0.0,,3.898,235.6479,,,1.80078
2018-02-02T05:17:50Z,13.15003,3.898323,0.0,88.27122,0,1156,6.4288,6.330196,,43690,0.0,1011.537,0.0,7.291,1009.736,0.0,,4.068,247.3448,,,1.80078
2018-02-02T05:32:51Z,13.14451,3.796631,0.0,88.6441,0,1156,4.8412,6.307606,,43690,0.0,1011.537,0.0,6.409,1009.736,0.0,,3.864,232.4469,,,1.80078
2018-02-02T05:47:53Z,13.14451,3.898384,0.0,89.42389,0,1156,5.0176,6.307606,,43690,0.0,1011.537,0.0,5.645,1009.736,0.0,,3.898,240.1248,,,1.80078
2018-02-02T06:02:54Z,13.14451,3.864426,0.0,89.72885,0,1156,5.5076,6.330196,,43690,0.0,1010.398,0.0,5.86,1008.597,0.0,,3.966,251.2438,,,1.80078
2018-02-02T06:17:49Z,13.14451,3.796631,0.0,89.22038,0,1156,4.9784,6.330196,,43690,0.0,1010.398,0.0,5.762,1008.597,0.0,,3.898,236.2736,,,1.80078
2018-02-02T06:32:51Z,13.13899,4.203411,0.0,88.57631,0,1156,4.214,6.41605,,43690,0.0,1010.398,0.0,6.625,1008.597,0.0,,4.305,219.4262,,,1.80078
2018-02-02T06:47:52Z,13.12795,4.339004,0.0,89.15258,0,1156,0.4704,6.547085,,43690,0.0,1010.398,0.0,3.685,1008.597,0.0,,4.407,125.5136,,,1.80078
2018-02-02T07:02:53Z,13.13347,3.322052,0.0,89.89834,0,1156,2.6068,6.612598,,43690,0.0,1010.642,0.0,3.469,1008.841,0.0,,3.559,126.8855,,,1.80078
2018-02-02T07:17:54Z,13.13899,2.542393,0.0,91.45766,0,1156,3.8612,6.41605,,43690,0.0,1010.642,0.0,4.43,1008.841,0.0,,2.576,94.00884,,,1.80078
2018-02-02T07:32:54Z,13.14451,2.373611,0.0,92.44228,0,1156,3.4692,6.156231,,43690,0.0,1010.642,0.0,3.802,1008.841,0.0,,2.441,100.9902,,,1.80078
2018-02-02T07:47:54Z,13.1465,2.276413,0.0,93.06235,0,1156,3.3908,6.004864,,43690,0.0,1010.642,0.0,3.822,1008.841,0.0,,2.445,98.40131,,,1.80078
2018-02-02T08:02:55Z,13.1486,2.317005,0.0,93.45005,0,1156,3.0968,5.916752,,43690,0.0,1009.238,0.0,3.92,1007.437,0.0,,2.385,105.2541,,,1.80078
2018-02-02T08:17:56Z,13.14895,2.725758,0.0,93.82712,0,1156,3.332,5.89642,,43690,0.0,1009.238,0.0,2.764,1007.437,0.0,,2.793,124.808,,,1.80078
2018-02-02T08:32:56Z,13.15425,2.556412,0.0,93.86147,0,1156,2.4304,5.873829,,43690,0.0,1009.238,0.0,3.567,1007.437,0.0,,2.692,67.94174,,,1.80078
2018-02-02T08:47:57Z,13.15398,2.353222,0.0,93.9977,0,1156,4.3904,5.851238,,43690,0.0,1009.238,0.0,5.194,1007.437,0.0,,2.455,104.682,,,1.80078
2018-02-02T09:02:58Z,13.14895,2.387165,0.0,94.30296,0,1156,4.9,5.787975,,43690,0.0,1008.045,0.0,5.116,1006.244,0.0,,2.387,101.3114,,,1.80078
2018-02-02T09:17:54Z,13.15998,2.217621,0.0,94.43862,0,1156,4.8216,5.699864,,43690,0.0,1008.045,0.0,5.9,1006.244,0.0,,2.353,107.6434,,,1.80078
2018-02-02T09:32:56Z,13.17105,2.115963,0.0,94.64223,0,1156,4.1944,5.591419,,43690,0.0,1008.045,0.0,5.684,1006.244,0.0,,2.252,93.3184,,,1.80078
2018-02-02T09:47:57Z,13.17105,2.014236,0.0,94.74397,0,1156,5.0764,5.462643,,43690,0.0,1008.045,0.0,5.39,1006.244,0.0,,2.15,115.6609,,,1.80078
2018-02-02T10:02:58Z,13.17105,2.115963,0.0,94.94742,0,1156,4.6452,5.376793,,43690,0.0,1007.396,0.0,6.252,1005.595,0.0,,2.116,110.8216,,,1.80078
2018-02-02T10:17:58Z,13.17105,2.149876,0.0,95.11698,0,1156,5.2136,5.397125,,43690,0.0,1007.396,0.0,5.076,1005.595,0.0,,2.184,115.3238,,,1.80078
2018-02-02T10:32:59Z,13.17105,2.285515,0.0,95.28652,0,1156,3.9788,5.376793,,43690,0.0,1007.396,0.0,5.704,1005.595,0.0,,2.353,107.6677,,,1.80078
2018-02-02T10:48:00Z,13.17657,2.455063,0.0,95.38826,0,1156,4.3316,5.376793,,43690,0.0,1007.396,0.0,6.272,1005.595,0.0,,2.455,104.3933,,,1.80078
2018-02-02T11:02:56Z,13.17657,2.014236,0.0,95.35434,0,1156,3.4496,5.41972,,43690,0.0,1006.012,0.0,5.135,1004.212,0.0,,2.252,109.7382,,,1.80078
2018-02-02T11:17:57Z,13.17657,2.048145,0.0,95.52389,0,1156,4.5668,5.354198,,43690,0.0,1006.012,0.0,5.684,1004.212,0.0,,2.218,103.0932,,,1.80078
2018-02-02T11:32:58Z,13.18209,1.742958,0.0,95.48998,0,1156,5.1156,5.290939,,43690,0.0,1006.012,0.0,6.801,1004.212,0.0,,1.913,133.4049,,,1.80078
2018-02-02T11:47:59Z,13.18209,2.014236,0.0004824263,95.65953,0,1156,5.0176,5.182495,,43690,0.03376984,1006.012,2.412132e-06,6.252,1004.212,0.0,,1.946,104.5619,,,1.80078
2018-02-02T12:03:01Z,13.18209,2.048145,0.00192968,95.69343,0,1156,3.9396,5.139572,,43690,0.1350776,1003.815,9.648398e-06,6.096,1002.014,0.0,,2.116,103.2377,,,1.80078
2018-02-02T12:18:02Z,13.17657,2.183784,0.004824302,95.82908,0,1156,4.5864,5.159904,,43690,0.3377012,1003.815,2.412151e-05,5.586,1002.014,0.0,,2.116,90.95895,,,1.80078
2018-02-02T12:33:03Z,13.17657,2.387241,0.01013109,95.8969,0,1156,6.5268,5.225422,,43690,0.7091766,1003.815,5.065547e-05,5.802,1002.014,0.0,,2.421,105.6934,,,1.80078
2018-02-02T12:47:59Z,13.17105,2.387241,0.009648413,95.8969,0,1156,5.3116,5.333866,,43690,0.6753889,1003.815,4.824206e-05,4.822,1002.014,0.0,,2.387,103.4303,,,1.80078
2018-02-02T13:03:01Z,13.17105,2.183784,0.01495475,95.82908,0,1156,4.4492,5.397125,,43690,1.046833,1002.838,7.477378e-05,4.782,1001.038,0.0,,2.319,101.8894,,,1.80078
2018-02-02T13:18:02Z,13.16553,2.048145,0.01784883,95.79517,0,1156,4.802,5.440052,,43690,1.249418,1002.838,8.924415e-05,5.096,1001.038,0.0,,2.184,105.7175,,,1.80078
2018-02-02T13:33:03Z,13.17105,2.285515,0.02460251,95.82908,0,1156,3.822,5.462643,,43690,1.722176,1002.838,0.0001230126,5.547,1001.038,0.0,,2.353,86.38452,,,1.80078
2018-02-02T13:48:04Z,13.17105,2.048145,0.02122636,95.86298,0,1156,3.9984,5.440052,,43690,1.485845,1002.838,0.0001061318,5.39,1001.038,0.0,,2.218,87.92538,,,1.80078
2018-02-02T14:03:05Z,13.16553,2.251602,0.03521659,95.82908,0,1156,4.8412,5.462643,,43690,2.465161,1001.455,0.0001760829,6.409,999.6541,0.0,,2.286,100.18,,,1.80078
2018-02-02T14:18:02Z,13.15448,2.149876,0.019778,95.96471,0,1156,4.8216,5.571087,,43690,1.38446,1001.455,9.889002e-05,5.547,999.6541,0.0,,2.353,97.94098,,,1.80078
2018-02-02T14:33:03Z,13.16,2.285515,0.01881306,95.8969,0,1156,2.94,5.591419,,43690,1.316914,1001.455,9.406527e-05,4.665,999.6541,0.0,,2.353,87.68462,,,1.80078
2018-02-02T14:48:04Z,13.16553,2.217693,0.03039007,95.93081,0,1156,5.4684,5.571087,,43690,2.127305,1001.455,0.0001519504,6.135,999.6541,0.0,,2.286,96.08713,,,1.80078
2018-02-02T15:03:05Z,13.15448,2.522881,0.01784723,96.10036,0,1156,4.0768,5.614014,,43690,1.249306,999.5016,8.923613e-05,5.312,997.7008,0.0,,2.557,113.7107,,,1.80078
2018-02-02T15:18:06Z,13.15448,2.86198,0.02990573,96.13426,0,1156,5.9584,5.699864,,43690,2.093401,999.5016,0.0001495287,6.096,997.7008,0.0,,2.93,99.217,,,1.80078